When you browse on this site, cookies collect data to enhance your experience and personalize the content and advertising you see.
Visit our Privacy Policy to learn more. By continuing to use the site, you agree to this use of cookies and data.
  • In Austria
  • List of Countries
  • For 7 days
  • Water Temperature
  • Satellite Maps
  • Weather Map
  • News
  • Weather Widgets
  • user-avatar
    Login

    Hourly Weather Lahaur

    Today, 11 December, Tuesday

    Time Temperature Precipitation Wind Pressure Humidity
    00:00 +13°C° 0 mm 2 mps 743 mmHg 65%
    01:00 +13°C° 0 mm 2 mps 743 mmHg 67%
    02:00 +13°C° 0 mm 2 mps 743 mmHg 69%
    03:00 +13°C° 0 mm 2 mps 743 mmHg 69%
    04:00 +12°C° 0 mm 2 mps 743 mmHg 69%
    05:00 +13°C° 0 mm 1 mps 742 mmHg 64%
    06:00 +13°C° 0.1 mm 1 mps 742 mmHg 63%
    07:00 +13°C° 0.1 mm 1 mps 743 mmHg 62%
    08:00 +14°C° 0.1 mm 1 mps 744 mmHg 60%
    09:00 +16°C° 0.1 mm 2 mps 744 mmHg 54%
    10:00 +18°C° 0.1 mm 2 mps 744 mmHg 47%
    11:00 +19°C° 0.1 mm 2 mps 744 mmHg 41%
    12:00 +20°C° 0.1 mm 2 mps 744 mmHg 39%
    13:00 +21°C° 0.1 mm 2 mps 743 mmHg 36%
    14:00 +23°C° 0.1 mm 2 mps 743 mmHg 34%
    15:00 +21°C° 0 mm 2 mps 742 mmHg 37%
    16:00 +20°C° 0 mm 2 mps 742 mmHg 39%
    17:00 +20°C° 0 mm 1 mps 742 mmHg 42%
    18:00 +19°C° 0 mm 1 mps 742 mmHg 44%
    19:00 +18°C° 0 mm 1 mps 743 mmHg 46%
    20:00 +18°C° 0 mm 1 mps 743 mmHg 47%
    21:00 +16°C° 0 mm 1 mps 743 mmHg 48%
    22:00 +16°C° 0 mm 2 mps 743 mmHg 49%
    23:00 +15°C° 0 mm 2 mps 743 mmHg 50%

    Tomorrow, 12 December, Wednesday

    Time Temperature Precipitation Wind Pressure Humidity
    00:00 +15°C° 0.1 mm 2 mps 743 mmHg 51%
    01:00 +14°C° 0.1 mm 2 mps 743 mmHg 52%
    02:00 +14°C° 0.1 mm 2 mps 743 mmHg 52%
    03:00 +14°C° 0.2 mm 2 mps 743 mmHg 53%
    04:00 +13°C° 0.2 mm 2 mps 743 mmHg 53%
    05:00 +13°C° 0.2 mm 2 mps 743 mmHg 53%
    06:00 +13°C° 0.1 mm 2 mps 744 mmHg 52%
    07:00 +13°C° 0.1 mm 2 mps 744 mmHg 50%
    08:00 +14°C° 0.1 mm 2 mps 744 mmHg 48%
    09:00 +16°C° 0 mm 2 mps 745 mmHg 41%
    10:00 +18°C° 0 mm 2 mps 745 mmHg 34%
    11:00 +20°C° 0 mm 2 mps 746 mmHg 26%
    12:00 +21°C° 0 mm 2 mps 745 mmHg 26%
    13:00 +23°C° 0 mm 2 mps 745 mmHg 25%
    14:00 +24°C° 0 mm 2 mps 744 mmHg 24%
    15:00 +21°C° 0 mm 2 mps 744 mmHg 27%
    16:00 +20°C° 0 mm 2 mps 744 mmHg 30%
    17:00 +20°C° 0 mm 1 mps 744 mmHg 33%
    18:00 +19°C° 0 mm 1 mps 744 mmHg 35%
    19:00 +17°C° 0 mm 2 mps 744 mmHg 37%
    20:00 +17°C° 0 mm 2 mps 745 mmHg 39%
    21:00 +16°C° 0 mm 2 mps 745 mmHg 40%
    22:00 +16°C° 0 mm 2 mps 745 mmHg 41%
    23:00 +15°C° 0 mm 2 mps 745 mmHg 42%

    Day after tomorrow, 13 December, Thursday

    Time Temperature Precipitation Wind Pressure Humidity
    00:00 +15°C° 0 mm 2 mps 745 mmHg 42%
    01:00 +14°C° 0 mm 2 mps 745 mmHg 43%
    02:00 +14°C° 0 mm 2 mps 745 mmHg 43%
    03:00 +13°C° 0 mm 2 mps 745 mmHg 43%
    04:00 +13°C° 0 mm 2 mps 745 mmHg 43%
    05:00 +13°C° 0 mm 2 mps 745 mmHg 43%
    06:00 +13°C° 0 mm 2 mps 745 mmHg 42%
    07:00 +13°C° 0 mm 2 mps 746 mmHg 41%
    08:00 +14°C° 0 mm 2 mps 746 mmHg 39%
    09:00 +16°C° 0 mm 2 mps 747 mmHg 34%
    10:00 +18°C° 0 mm 2 mps 747 mmHg 28%
    11:00 +21°C° 0 mm 3 mps 747 mmHg 23%
    12:00 +21°C° 0 mm 3 mps 747 mmHg 21%
    13:00 +22°C° 0 mm 3 mps 746 mmHg 19%
    14:00 +24°C° 0 mm 3 mps 746 mmHg 18%
    15:00 +21°C° 0 mm 3 mps 745 mmHg 19%
    16:00 +20°C° 0 mm 2 mps 745 mmHg 21%
    17:00 +19°C° 0 mm 2 mps 745 mmHg 22%
    18:00 +18°C° 0 mm 2 mps 745 mmHg 23%
    19:00 +17°C° 0 mm 2 mps 746 mmHg 24%
    20:00 +16°C° 0 mm 2 mps 746 mmHg 25%
    21:00 +16°C° 0 mm 2 mps 746 mmHg 26%
    22:00 +15°C° 0 mm 2 mps 746 mmHg 27%
    23:00 +15°C° 0 mm 2 mps 746 mmHg 28%

    14 December, Friday

    Time Temperature Precipitation Wind Pressure Humidity
    00:00 +14°C° 0 mm 2 mps 746 mmHg 28%
    01:00 +14°C° 0 mm 2 mps 746 mmHg 29%
    02:00 +13°C° 0 mm 2 mps 746 mmHg 29%
    03:00 +13°C° 0 mm 2 mps 746 mmHg 29%
    04:00 +12°C° 0 mm 2 mps 746 mmHg 29%
    05:00 +12°C° 0 mm 2 mps 746 mmHg 29%
    06:00 +12°C° 0 mm 1 mps 746 mmHg 29%
    07:00 +12°C° 0 mm 1 mps 747 mmHg 29%
    08:00 +13°C° 0 mm 1 mps 747 mmHg 30%
    09:00 +15°C° 0 mm 2 mps 747 mmHg 26%
    10:00 +17°C° 0 mm 2 mps 748 mmHg 23%
    11:00 +20°C° 0 mm 2 mps 748 mmHg 20%
    12:00 +21°C° 0 mm 2 mps 747 mmHg 19%
    13:00 +21°C° 0 mm 2 mps 747 mmHg 17%
    14:00 +23°C° 0 mm 2 mps 746 mmHg 16%
    15:00 +21°C° 0 mm 2 mps 746 mmHg 18%
    16:00 +20°C° 0 mm 2 mps 746 mmHg 19%
    17:00 +18°C° 0 mm 2 mps 746 mmHg 20%
    18:00 +18°C° 0 mm 2 mps 746 mmHg 21%
    19:00 +17°C° 0 mm 2 mps 747 mmHg 21%
    20:00 +16°C° 0 mm 2 mps 747 mmHg 22%
    21:00 +15°C° 0 mm 2 mps 747 mmHg 22%
    22:00 +15°C° 0 mm 2 mps 747 mmHg 23%
    23:00 +14°C° 0 mm 2 mps 747 mmHg 23%

    15 December, Saturday

    Time Temperature Precipitation Wind Pressure Humidity
    00:00 +14°C° 0 mm 2 mps 747 mmHg 24%
    01:00 +13°C° 0 mm 2 mps 746 mmHg 24%
    02:00 +13°C° 0 mm 2 mps 746 mmHg 25%
    03:00 +12°C° 0 mm 1 mps 746 mmHg 25%
    04:00 +12°C° 0 mm 1 mps 746 mmHg 26%
    05:00 +11°C° 0 mm 1 mps 746 mmHg 26%
    06:00 +12°C° 0 mm 1 mps 746 mmHg 26%
    07:00 +12°C° 0 mm 1 mps 747 mmHg 26%
    08:00 +12°C° 0 mm 1 mps 747 mmHg 26%
    09:00 +14°C° 0 mm 1 mps 747 mmHg 23%
    10:00 +18°C° 0 mm 1 mps 747 mmHg 19%
    11:00 +19°C° 0 mm 2 mps 748 mmHg 16%
    12:00 +20°C° 0 mm 2 mps 747 mmHg 15%
    13:00 +21°C° 0 mm 2 mps 747 mmHg 13%
    14:00 +23°C° 0 mm 2 mps 747 mmHg 12%
    15:00 +21°C° 0 mm 2 mps 746 mmHg 14%
    16:00 +21°C° 0 mm 1 mps 746 mmHg 15%
    17:00 +19°C° 0 mm 1 mps 746 mmHg 16%
    18:00 +18°C° 0 mm 1 mps 746 mmHg 17%
    19:00 +16°C° 0 mm 1 mps 747 mmHg 18%
    20:00 +15°C° 0 mm 1 mps 747 mmHg 19%
    21:00 +15°C° 0 mm 1 mps 747 mmHg 19%
    22:00 +14°C° 0 mm 1 mps 747 mmHg 19%
    23:00 +14°C° 0 mm 1 mps 747 mmHg 19%

    16 December, Sunday

    Time Temperature Precipitation Wind Pressure Humidity
    00:00 +13°C° 0 mm 1 mps 747 mmHg 20%
    01:00 +13°C° 0 mm 1 mps 747 mmHg 20%
    02:00 +12°C° 0 mm 1 mps 747 mmHg 20%
    03:00 +12°C° 0 mm 1 mps 747 mmHg 20%
    04:00 +12°C° 0 mm 1 mps 746 mmHg 20%
    05:00 +10°C° 0 mm 2 mps 746 mmHg 20%
    06:00 +10°C° 0 mm 2 mps 746 mmHg 21%
    07:00 +12°C° 0 mm 2 mps 747 mmHg 22%
    08:00 +12°C° 0 mm 1 mps 747 mmHg 22%
    09:00 +15°C° 0 mm 2 mps 747 mmHg 19%
    10:00 +17°C° 0 mm 2 mps 747 mmHg 16%
    11:00 +20°C° 0 mm 2 mps 747 mmHg 14%
    12:00 +21°C° 0 mm 2 mps 747 mmHg 12%
    13:00 +23°C° 0 mm 2 mps 746 mmHg 11%
    14:00 +24°C° 0 mm 2 mps 745 mmHg 10%
    15:00 +23°C° 0 mm 2 mps 745 mmHg 11%
    16:00 +20°C° 0 mm 2 mps 745 mmHg 12%
    17:00 +20°C° 0 mm 1 mps 745 mmHg 13%
    18:00 +19°C° 0 mm 1 mps 745 mmHg 14%
    19:00 +18°C° 0 mm 1 mps 745 mmHg 14%
    20:00 +16°C° 0 mm 1 mps 746 mmHg 14%
    21:00 +15°C° 0 mm 1 mps 746 mmHg 15%
    22:00 +14°C° 0 mm 1 mps 746 mmHg 15%
    23:00 +14°C° 0 mm 1 mps 746 mmHg 15%
    Show more